Weather History for KCJR - June, 2013

Change the Weather History Date:

Monday, June 24, 2013

  Actual Average (KOMH) Record (KOMH)
Temperature  
Mean Temperature 80 °F -  
Max Temperature 91 °F 83 °F 97 °F (1951)
Min Temperature 68 °F 62 °F 45 °F (1972)
Cooling Degree Days 14    
Growing Degree Days 30 (Base 50)    
Moisture  
Dew Point 72 °F    
Average Humidity 89    
Maximum Humidity 100    
Minimum Humidity 51    
Precipitation  
Precipitation 1.88 in - - ()
Sea Level Pressure  
Sea Level Pressure 30.12 in    
Wind  
Wind Speed 1 mph (SW)    
Max Wind Speed 21 mph    
Max Gust Speed 38 mph    
Visibility 7 miles    
Events Fog , Rain , Thunderstorm    
Averages and records for this station are not official NWS values.
T = Trace of Precipitation, MM = Missing Value Source: NWS Daily Summary

Daily Weather History Graph

Daily Weather History Graph

Search for Another Location

Airport or City:

Trip Planner

Search our weather history database for the weather conditions in past years. The results will help you decide how hot, cold, wet, or windy it might be!

Date:

Astronomy

Jun. 24, 2013 Rise Set
Actual Time 5:48 AM EDT 8:39 PM EDT
Civil Twilight 5:16 AM EDT 9:11 PM EDT
Nautical Twilight 4:36 AM EDT 9:51 PM EDT
Astronomical Twilight 3:50 AM EDT 10:37 PM EDT
Moon 9:42 PM EDT (6/24) 7:12 AM EDT (6/24)
Length of Visible Light 15h 54m
Length of Day
14h 51m
Full, 98% of the Moon is Illuminated
Jun 24
Full
Jun 30
Last Quarter
Jul 8
New
Jul 15
First Quarter
Jul 22
Full

Hourly Weather History & Observations

Time (EDT) Temp. Heat Index Dew Point Humidity Pressure Visibility Wind Dir Wind Speed Gust Speed Precip Events Conditions
12:15 AM 73.4 °F - 73.4 °F 100% 30.14 in 10.0 mi Calm Calm - N/A   Clear
12:35 AM 73.4 °F - 73.4 °F 100% 30.13 in 10.0 mi Calm Calm - N/A   Clear
12:55 AM 73.4 °F - 73.4 °F 100% 30.13 in 10.0 mi Calm Calm - N/A   Clear
1:15 AM 73.4 °F - 73.4 °F 100% 30.13 in 5.0 mi South 3.5 mph - N/A   Clear
1:35 AM 73.4 °F - 73.4 °F 100% 30.13 in 10.0 mi Calm Calm - N/A   Clear
1:55 AM 73.4 °F - 73.4 °F 100% 30.13 in 10.0 mi Calm Calm - N/A   Clear
2:15 AM 71.6 °F - 71.6 °F 100% 30.13 in 10.0 mi Calm Calm - N/A   Clear
2:35 AM 71.6 °F - 71.6 °F 100% 30.13 in 7.0 mi Calm Calm - N/A   Clear
2:55 AM 71.6 °F - 71.6 °F 100% 30.13 in 5.0 mi Calm Calm - N/A   Clear
3:15 AM 69.8 °F - 69.8 °F 100% 30.13 in 2.5 mi Calm Calm - N/A   Clear
3:35 AM 69.8 °F - 69.8 °F 100% 30.13 in 1.5 mi Calm Calm - N/A   Mist
3:55 AM 69.8 °F - 69.8 °F 100% 30.13 in 3.0 mi Calm Calm - N/A   Clear
4:15 AM 69.8 °F - 69.8 °F 100% 30.13 in 2.5 mi Calm Calm - N/A   Clear
4:35 AM 69.8 °F - 69.8 °F 100% 30.13 in 0.5 mi Calm Calm - N/A Fog Fog
4:55 AM 69.8 °F - 69.8 °F 100% 30.13 in 0.8 mi Calm Calm - N/A   Overcast
5:15 AM 68.0 °F - 68.0 °F 100% 30.13 in 0.5 mi Calm Calm - N/A Fog Fog
5:35 AM 69.8 °F - 69.8 °F 100% 30.13 in 0.5 mi Calm Calm - N/A Fog Fog
5:55 AM 69.8 °F - 69.8 °F 100% 30.13 in 0.8 mi Calm Calm - N/A   Mist
6:15 AM 69.8 °F - 69.8 °F 100% 30.14 in 0.5 mi Calm Calm - N/A Fog Fog
6:35 AM 68.0 °F - 68.0 °F 100% 30.14 in 0.5 mi Calm Calm - N/A Fog Fog
6:55 AM 69.8 °F - 69.8 °F 100% 30.15 in 3.0 mi Calm Calm - N/A   Clear
7:15 AM 73.4 °F - 73.4 °F 100% 30.15 in 7.0 mi Calm Calm - N/A   Clear
7:35 AM 73.4 °F - 73.4 °F 100% 30.15 in 10.0 mi SSW 4.6 mph - N/A   Clear
7:55 AM 75.2 °F - 75.2 °F 100% 30.15 in 10.0 mi SSW 3.5 mph - N/A   Clear
8:15 AM 77.0 °F - 75.2 °F 94% 30.15 in 10.0 mi SW 3.5 mph - N/A   Clear
8:35 AM 78.8 °F - 75.2 °F 89% 30.15 in 10.0 mi SSW 4.6 mph - N/A   Clear
8:55 AM 80.6 °F 86.2 °F 75.2 °F 84% 30.15 in 10.0 mi SSW 3.5 mph - N/A   Clear
9:15 AM 80.6 °F 86.2 °F 75.2 °F 84% 30.15 in 10.0 mi Calm Calm - N/A   Clear
9:35 AM 80.6 °F 86.2 °F 75.2 °F 84% 30.15 in 10.0 mi Calm Calm - N/A   Clear
9:55 AM 80.6 °F 86.2 °F 75.2 °F 84% 30.15 in 10.0 mi SW 4.6 mph - N/A   Clear
10:15 AM 80.6 °F 86.2 °F 75.2 °F 84% 30.16 in 10.0 mi Calm Calm - N/A   Clear
10:35 AM 82.4 °F 89.5 °F 75.2 °F 79% 30.15 in 10.0 mi Calm Calm - N/A   Clear
10:55 AM 84.2 °F 90.9 °F 73.4 °F 70% 30.15 in 10.0 mi Calm Calm - N/A   Clear
11:15 AM 84.2 °F 90.9 °F 73.4 °F 70% 30.15 in 10.0 mi Calm Calm - N/A   Clear
11:35 AM 86.0 °F 91.8 °F 71.6 °F 62% 30.15 in 10.0 mi Calm Calm - N/A   Clear
11:55 AM 87.8 °F 93.8 °F 71.6 °F 58% 30.15 in 10.0 mi Calm Calm - N/A   Clear
12:15 PM 87.8 °F 93.8 °F 71.6 °F 58% 30.15 in 10.0 mi Calm Calm - N/A   Clear
12:35 PM 87.8 °F 93.8 °F 71.6 °F 58% 30.15 in 10.0 mi Calm Calm - N/A   Clear
12:55 PM 89.6 °F 96.2 °F 71.6 °F 55% 30.14 in 10.0 mi Calm Calm - N/A   Clear
1:15 PM 91.4 °F 98.4 °F 71.6 °F 52% 30.12 in 10.0 mi SSE 3.5 mph - N/A   Clear
1:35 PM 91.4 °F 98.4 °F 71.6 °F 52% 30.11 in 10.0 mi South 4.6 mph - N/A   Clear
1:55 PM 89.6 °F 94.7 °F 69.8 °F 52% 30.10 in 10.0 mi Calm Calm - N/A   Clear
2:15 PM 89.6 °F 96.2 °F 71.6 °F 55% 30.09 in 10.0 mi Calm Calm - N/A Thunderstorm Scattered Clouds
2:35 PM 82.4 °F 83.4 °F 62.6 °F 51% 30.13 in 3.0 mi WSW 20.7 mph 38.0 mph 0.24 in Rain , Thunderstorm Heavy Thunderstorms and Rain
2:55 PM 71.6 °F - 66.2 °F 83% 30.16 in 1.5 mi NNW 8.1 mph - 1.01 in Rain , Thunderstorm Heavy Thunderstorms and Rain
3:15 PM 69.8 °F - 69.8 °F 100% 30.14 in 1.8 mi NE 5.8 mph - 0.71 in Rain , Thunderstorm Heavy Thunderstorms and Rain
3:35 PM 69.8 °F - 69.8 °F 100% 30.15 in 5.0 mi NNW 4.6 mph - 0.79 in Rain Light Rain
3:55 PM 69.8 °F - 69.8 °F 100% 30.14 in 10.0 mi Calm Calm - 0.85 in Rain , Thunderstorm Light Thunderstorms and Rain
4:15 PM 69.8 °F - 69.8 °F 100% 30.12 in 10.0 mi SW 3.5 mph - 0.01 in Rain , Thunderstorm Light Thunderstorms and Rain
4:35 PM 69.8 °F - 69.8 °F 100% 30.11 in 10.0 mi Calm Calm - 0.02 in Rain , Thunderstorm Light Thunderstorms and Rain
4:55 PM 73.4 °F - 71.6 °F 94% 30.08 in 10.0 mi Calm Calm - 0.02 in   Clear
5:15 PM 77.0 °F - 73.4 °F 89% 30.07 in 10.0 mi Calm Calm - N/A Thunderstorm Clear
5:35 PM 78.8 °F - 73.4 °F 83% 30.09 in 10.0 mi NW 3.5 mph - N/A Thunderstorm Thunderstorm
5:55 PM 78.8 °F - 75.2 °F 89% 30.09 in 10.0 mi Calm Calm - N/A   Clear
6:15 PM 78.8 °F - 75.2 °F 89% 30.09 in 10.0 mi Calm Calm - N/A   Clear
6:35 PM 80.6 °F 86.2 °F 75.2 °F 84% 30.08 in 10.0 mi South 4.6 mph - N/A   Clear
6:55 PM 78.8 °F - 73.4 °F 83% 30.08 in 10.0 mi SSW 3.5 mph - N/A   Clear
7:15 PM 78.8 °F - 75.2 °F 89% 30.08 in 10.0 mi WSW 4.6 mph - N/A   Clear
7:35 PM 78.8 °F - 75.2 °F 89% 30.07 in 10.0 mi Calm Calm - N/A   Clear
7:55 PM 77.0 °F - 73.4 °F 89% 30.06 in 10.0 mi Calm Calm - N/A   Clear
8:15 PM 75.2 °F - 73.4 °F 94% 30.07 in 10.0 mi Calm Calm - N/A   Clear
8:35 PM 75.2 °F - 73.4 °F 94% 30.07 in 10.0 mi South 3.5 mph - N/A   Clear
8:55 PM 73.4 °F - 73.4 °F 100% 30.07 in 5.0 mi Calm Calm - N/A   Clear
9:15 PM 73.4 °F - 73.4 °F 100% 30.07 in 3.0 mi Calm Calm - N/A   Clear
9:35 PM 71.6 °F - 71.6 °F 100% 30.08 in 4.0 mi Calm Calm - N/A   Clear
9:55 PM 73.4 °F - 73.4 °F 100% 30.08 in 4.0 mi Calm Calm - N/A   Clear
10:15 PM 71.6 °F - 71.6 °F 100% 30.08 in 2.5 mi Calm Calm - N/A   Clear
10:35 PM 71.6 °F - 71.6 °F 100% 30.08 in 1.2 mi Calm Calm - N/A   Mist
10:55 PM 71.6 °F - 71.6 °F 100% 30.08 in 1.2 mi Calm Calm - N/A   Mist
11:15 PM 71.6 °F - 71.6 °F 100% 30.08 in 1.2 mi Calm Calm - N/A   Mist
11:35 PM 71.6 °F - 71.6 °F 100% 30.07 in 2.5 mi Calm Calm - N/A   Clear
11:55 PM 71.6 °F - 71.6 °F 100% 30.07 in 2.0 mi Calm Calm - N/A   Clear